Regional Weather Roundup
Issued by NWS

Home | Current Version | Previous Version | Graphics & Text | Print | Product List | Glossary On
Versions: 1 2 3 4 5 6 7 8 9 10 11 12 13 14 15 16 17 18 19 20 21 22 23 24 25 26 27 28 29 30 31 32 33 34 35 36 37 38 39 40 41 42 43 44 45 46 47 48
000
ASUS45 KBOU 221610
RWRCO

WEATHER ROUNDUP FOR COLORADO
NATIONAL WEATHER SERVICE PUEBLO CO
1000 AM MDT SUN APR 22 2018

NOTE: "FAIR" INDICATES FEW OR NO CLOUDS BELOW 12000 FEET WITH NO
SIGNIFICANT WEATHER AND/OR OBSTRUCTIONS TO VISIBILITY.

COZ001>005-013-030-031-221700-
...NORTHWEST COLORADO...

CITY           SKY/WX    TMP DP  RH WIND       PRES   REMARKS
CRAIG          SUNNY     51  37  58 CALM      30.24F
HAYDEN         SUNNY     48  36  63 E9        30.26S
MEEKER         SUNNY     48  35  60 CALM      30.24F
RABBIT EARS PA NOT AVBL
STEAMBOAT SPGS FAIR      42  35  77 CALM      30.26S
WALDEN         FAIR      43  30  61 SE5       30.29S
$$

COZ006>008-011-221700-
...WEST CENTRAL VALLEYS...

CITY           SKY/WX    TMP DP  RH WIND       PRES   REMARKS
GRAND JUNCTION SUNNY     55  35  47 S7        30.20F
MONTROSE       SUNNY     50  30  46 NW3       30.25F
EAGLE          MOSUNNY   38  33  82 W3        30.31F
RIFLE          SUNNY     49  36  61 N3        30.25F
DELTA          NOT AVBL
NUCLA          FAIR      52  30  43 NW3       30.24F
$$

COZ017>023-064>068-221700-
...SOUTHWEST COLORADO...

CITY           SKY/WX    TMP DP  RH WIND       PRES   REMARKS
DURANGO        SUNNY     54  21  27 VRB7      30.21F
CORTEZ         SUNNY     60  19  20 E3        30.17F
PAGOSA SPRINGS FAIR      52  23  31 SE3       30.24F
TELLURIDE      SUNNY     46  24  40 CALM      30.32S
WOLF CREEK PAS SUNNY     34  18  51 N10G17    30.44R WCI  26
$$

COZ009-010-012-014-032>034-037-058>063-221700-
...CENTRAL COLORADO...

CITY           SKY/WX    TMP DP  RH WIND       PRES   REMARKS
ASPEN          SUNNY     44  33  65 CALM      30.27F
BUENA VISTA    FAIR      50  28  43 SE12      30.26F
COPPER MTN     NOT AVBL
BERTHOUD PASS  CLOUDY    25  14  63 NW10      30.38S WCI  15
COTTONWOOD PAS SUNNY     48  32  53 SE9       30.32S
GUNNISON       SUNNY     42  28  57 VRB3      30.32F
KREMMLING      SUNNY     45  34  65 CALM      30.32S
LEADVILLE      SUNNY     40  26  57 VRB6      30.31F
MONARCH PASS   SUNNY     30  27  86 SW10      30.49R WCI  21
SALIDA         FAIR      48  29  46 N3        30.33F
SUNLIGHT       SUNNY     34  28  80 CALM      30.40S
WILKERSON PASS SUNNY     37  23  56 N3        30.38R
$$

COZ069>075-221700-
...SAN LUIS VALLEY/SANGRE DE CRISTO MOUNTAINS...

CITY           SKY/WX    TMP DP  RH WIND       PRES   REMARKS
ALAMOSA        SUNNY     47  27  45 N5        30.27S
DEL NORTE      FAIR      48  25  41 E5        30.28S
LA VETA PASS   SUNNY     43  25  49 NW7       30.44R
SAGUACHE       NOT AVBL
$$

COZ035-036-038>040-221700-
...NORTHERN COLORADO FRONT RANGE...

CITY           SKY/WX    TMP DP  RH WIND       PRES   REMARKS
DENVER INTL AP MOSUNNY   47  38  71 E5        30.18S
DMNS CITY PARK NOT AVBL
AURORA         MOSUNNY   47  38  72 CALM      30.19S
FRONT RANGE AP NOT AVBL
ERIE MUNI ARPT FAIR      44  37  75 CALM      30.24S
BOULDER MUN AP FAIR      46  37  71 CALM      30.18S
CENTENNIAL     MOSUNNY   49  38  65 N3        30.19R
BROOMFIELD     SUNNY     46  37  71 CALM      30.19S
LOVELAND       CLOUDY    39  38  96 S5        30.20S FOG
LONGMONT       FAIR      48  40  73 NE3       30.21S
$$

COZ041-046-047-076>085-087-088-221700-
...PIKES PEAK/PALMER DIVIDE AND SOUTHERN FOOTHILLS...

CITY           SKY/WX    TMP DP  RH WIND       PRES   REMARKS
COLO. SPRINGS  MOSUNNY   44  39  82 VRB6      30.20R
A. F. ACADEMY  SUNNY     55  30  38 N15       30.19R
SCHRIEVER AFB  NOT AVBL
CHEYENNE MTN   NOT AVBL
ELLICOTT         N/A    N/A N/A N/A W3        30.19S
FALCON         FAIR      54  30  40 N8        30.22R
FORT CARSON    MOSUNNY   40  39  99 SE5       30.19S
LIMON          PTSUNNY   39  36  89 SE3       30.20S
MONUMENT HILL  SUNNY     50  32  50 N9        30.23R
CANON CITY     FAIR      46  41  81 E10G16    30.18S
WALSENBURG     FAIR      59  30  33 NE7       30.20R
TRINIDAD       SUNNY     53  35  50 NE7       30.19S
$$

COZ042>045-048>051-090-091-221700-
...NORTHEAST COLORADO...

CITY           SKY/WX    TMP DP  RH WIND       PRES   REMARKS
GREELEY ARPT   PTSUNNY   40  37  89 VRB3      30.21S FOG
AKRON          SUNNY     46  37  71 SE9       30.19S
BURLINGTON     PTSUNNY   48  37  65 VRB5      30.21S
WRAY           PTSUNNY   46  34  61 MISG      30.23R
YUMA           NOT AVBL
STERLING       NOT AVBL
HOLYOKE        PTSUNNY   48  34  57 CALM      30.21F
FORT MORGAN    FAIR      47  33  57 SE5       30.20S
$$

COZ086-089-092>099-221700-
...SOUTHEAST COLORADO...

CITY           SKY/WX    TMP DP  RH WIND       PRES   REMARKS
PUEBLO         PTSUNNY   44  38  79 CALM      30.20F
LA JUNTA       CLOUDY    46  40  79 VRB3      30.21S
LAMAR          CLOUDY    43  36  76 CALM      30.21F
SPRINGFIELD      N/A     43  38  82 VRB3      30.21S
$$





USA.gov is the U.S. government's official web portal to all federal, state and local government web resources and services.